Location: Unspecified
(48.8656°N, 0.0000°E)
Time: 08:15:27
(UTC+00:00)

Altair - Pass Details

Date: 21 June 2019
Orbit: 1501 x 1683 km, 47.2° (Epoch: 19 July)

Event Time Altitude Azimuth Distance (km) Brightness Sun altitude
Rises 01:28:10 0° 286° (WNW) 4,841 10.1 -15.2°
Reaches altitude 10° 01:31:19 10° 283° (WNW) 3,875 9.5 -15.0°
Maximum altitude 01:40:56 57° 209° (SSW) 1,915 7.7 -14.4°
Drops below altitude 10° 01:50:45 10° 134° (SE) 3,940 9.5 -13.7°
Sets 01:53:59 0° 131° (SE) 4,926 10.0 -13.5°
